N2RF KACK-KEWR

Flight info

Callsign N2RF
Flight time N/A
Altitude 43000
Route DCT LFV DCT CELTS DCT NELIE FLOSI4
Aircraft C700/M-SBDGHM1RWXY/LB2

Departure

Time 2026-05-04 17:32
Airport Nantucket Memorial Airport (KACK)

Arrival

Time N/A
Airport Newark Liberty International Airport (KEWR)
Time Latitude Longitude Altitude Speed Heading
2026-05-04 17:08 41.25418 -70.06684 38 ft 0 kts 317°
2026-05-04 17:25 41.25420 -70.06686 38 ft 0 kts 317°
2026-05-04 17:26 41.25498 -70.06601 39 ft 13 kts 76°
2026-05-04 17:26 41.25535 -70.06411 39 ft 15 kts 44°
2026-05-04 17:27 41.25596 -70.06266 40 ft 16 kts 44°
2026-05-04 17:27 41.25793 -70.06003 40 ft 19 kts 45°
2026-05-04 17:28 41.25977 -70.05753 41 ft 12 kts 75°
2026-05-04 17:29 41.25971 -70.05718 40 ft 0 kts 122°
2026-05-04 17:31 41.25966 -70.05708 40 ft 7 kts 127°
2026-05-04 17:31 41.25221 -70.06558 126 ft 147 kts 224°
2026-05-04 17:32 41.23635 -70.09129 2102 ft 221 kts 241°
2026-05-04 17:33 41.22240 -70.14203 2489 ft 183 kts 252°
2026-05-04 17:33 41.21852 -70.15825 2491 ft 186 kts 252°
2026-05-04 17:34 41.20657 -70.20812 2503 ft 191 kts 252°
2026-05-04 17:34 41.20253 -70.22501 2505 ft 193 kts 252°
2026-05-04 17:35 41.20064 -70.27419 2307 ft 181 kts 298°
2026-05-04 17:35 41.22091 -70.29346 2075 ft 183 kts 352°
2026-05-04 17:35 41.23265 -70.29112 2049 ft 171 kts 27°
2026-05-04 17:36 41.24050 -70.27962 1801 ft 173 kts 67°
2026-05-04 17:36 41.24341 -70.26397 1618 ft 176 kts 77°
2026-05-04 17:36 41.24645 -70.24817 1480 ft 178 kts 75°
2026-05-04 17:36 41.24938 -70.23222 1412 ft 177 kts 76°
2026-05-04 17:37 41.25236 -70.21637 1304 ft 178 kts 76°
2026-05-04 17:37 41.25550 -70.20075 1205 ft 171 kts 76°
2026-05-04 17:37 41.25808 -70.18555 1105 ft 165 kts 78°
2026-05-04 17:37 41.25934 -70.17028 875 ft 170 kts 86°
2026-05-04 17:38 41.25977 -70.15488 785 ft 163 kts 90°
2026-05-04 17:38 41.26000 -70.13986 637 ft 163 kts 88°
2026-05-04 17:38 41.26050 -70.12517 617 ft 154 kts 86°
2026-05-04 17:38 41.26130 -70.11129 601 ft 150 kts 85°
2026-05-04 17:39 41.25922 -70.08469 698 ft 146 kts 120°
2026-05-04 17:39 41.25308 -70.07383 717 ft 146 kts 128°
2026-05-04 17:39 41.24808 -70.06246 788 ft 141 kts 101°
2026-05-04 17:40 41.25079 -70.05041 823 ft 144 kts 41°
2026-05-04 17:40 41.25861 -70.04232 874 ft 147 kts 39°
2026-05-04 17:40 41.26567 -70.03249 951 ft 147 kts 63°
2026-05-04 17:40 41.26730 -70.02392 1042 ft 142 kts 78°
2026-05-04 17:41 41.27375 -70.01458 702 ft 242 kts 357°
2026-05-04 17:41 41.28864 -70.01569 1049 ft 181 kts 338°
2026-05-04 17:41 41.28932 -70.02850 1040 ft 175 kts 221°
2026-05-04 17:41 41.27989 -70.03351 955 ft 120 kts 202°
2026-05-04 17:42 41.27226 -70.03923 446 ft 127 kts 218°
2026-05-04 17:42 41.26625 -70.04668 224 ft 115 kts 225°
2026-05-04 17:42 41.26087 -70.05394 97 ft 108 kts 226°
2026-05-04 17:42 41.25569 -70.06097 44 ft 102 kts 225°
2026-05-04 17:43 41.25152 -70.06650 37 ft 61 kts 224°
2026-05-04 17:43 41.25091 -70.06730 36 ft 2 kts 225°
2026-05-04 17:43 41.25035 -70.06798 36 ft 19 kts 222°
2026-05-04 17:43 41.24934 -70.06922 38 ft 20 kts 224°
2026-05-04 17:44 41.24822 -70.07074 37 ft 26 kts 226°
2026-05-04 17:44 41.24736 -70.07236 36 ft 15 kts 255°
2026-05-04 17:44 41.24776 -70.07335 36 ft 14 kts 338°
2026-05-04 17:44 41.24789 -70.07340 36 ft 0 kts 348°
2026-05-04 17:45 41.24792 -70.07339 36 ft 4 kts
2026-05-04 17:45 41.24844 -70.07259 37 ft 20 kts 52°
2026-05-04 17:45 41.24963 -70.07106 37 ft 26 kts 45°
2026-05-04 17:46 41.25097 -70.06928 37 ft 29 kts 45°
2026-05-04 17:46 41.25206 -70.06787 38 ft 15 kts 44°
2026-05-04 17:46 41.25218 -70.06772 38 ft 0 kts 43°
2026-05-04 17:46 41.25234 -70.06732 38 ft 7 kts 64°
2026-05-04 17:47 41.25257 -70.06711 38 ft 14 kts 33°
2026-05-04 17:47 41.25394 -70.06529 38 ft 38 kts 45°
2026-05-04 17:47 41.25519 -70.06369 39 ft 10 kts 38°
2026-05-04 17:47 41.25565 -70.06375 39 ft 6 kts 324°
2026-05-04 17:48 41.25598 -70.06378 39 ft 3 kts 41°
2026-05-04 17:48 41.25616 -70.06351 39 ft 0 kts 47°
2026-05-04 17:49 41.25618 -70.06348 39 ft 3 kts 45°
2026-05-04 17:49 41.25661 -70.06293 40 ft 14 kts 43°
2026-05-04 17:49 41.25683 -70.06220 40 ft 8 kts 74°
2026-05-04 17:50 41.25696 -70.06198 40 ft 10 kts 44°
2026-05-04 17:50 41.25781 -70.06082 40 ft 20 kts 45°
2026-05-04 17:50 41.25892 -70.05938 40 ft 24 kts 44°
2026-05-04 17:50 41.25933 -70.05852 40 ft 9 kts 96°
2026-05-04 17:51 41.25970 -70.05771 41 ft 12 kts 50°
2026-05-04 17:51 41.25958 -70.05694 40 ft 10 kts 130°
2026-05-04 17:51 41.25865 -70.05699 39 ft 18 kts 225°
2026-05-04 17:51 41.25726 -70.05886 39 ft 59 kts 225°
2026-05-04 17:52 41.25192 -70.06589 66 ft 154 kts 224°
2026-05-04 17:52 41.24420 -70.07748 895 ft 176 kts 236°
2026-05-04 17:52 41.23882 -70.09298 1440 ft 193 kts 257°
2026-05-04 17:52 41.23613 -70.11096 2168 ft 202 kts 260°
2026-05-04 17:53 41.23360 -70.13025 2242 ft 228 kts 260°
2026-05-04 17:53 41.23081 -70.15053 2213 ft 217 kts 259°
2026-05-04 17:53 41.22809 -70.16989 3480 ft 204 kts 259°
2026-05-04 17:53 41.22554 -70.18813 5243 ft 201 kts 261°
2026-05-04 17:54 41.22612 -70.20693 6733 ft 208 kts 283°
2026-05-04 17:54 41.23163 -70.22498 8223 ft 214 kts 298°
2026-05-04 17:54 41.23943 -70.24220 9682 ft 219 kts 301°
2026-05-04 17:54 41.24734 -70.25987 11149 ft 224 kts 300°
2026-05-04 17:55 41.25508 -70.27812 12539 ft 230 kts 299°
2026-05-04 17:55 41.26301 -70.29697 13848 ft 236 kts 299°
2026-05-04 17:55 41.27102 -70.31589 15089 ft 241 kts 299°
2026-05-04 17:55 41.27953 -70.33595 15988 ft 264 kts 299°
2026-05-04 17:56 41.28884 -70.35792 16007 ft 269 kts 299°
2026-05-04 17:56 41.29777 -70.37905 15997 ft 257 kts 299°
2026-05-04 17:56 41.30637 -70.39938 16002 ft 248 kts 299°
2026-05-04 17:56 41.31479 -70.41929 16002 ft 247 kts 299°
2026-05-04 17:57 41.32330 -70.43945 16003 ft 251 kts 299°
2026-05-04 17:57 41.33186 -70.45974 16009 ft 254 kts 299°
2026-05-04 17:57 41.34053 -70.48028 16012 ft 254 kts 299°
2026-05-04 17:57 41.34912 -70.50069 16013 ft 253 kts 299°
2026-05-04 17:58 41.35775 -70.52116 16012 ft 253 kts 299°
2026-05-04 17:58 41.36636 -70.54163 16010 ft 252 kts 299°
2026-05-04 17:58 41.37476 -70.56161 16009 ft 252 kts 299°
2026-05-04 17:58 41.38333 -70.58200 16008 ft 251 kts 299°
2026-05-04 17:59 41.39184 -70.60226 16008 ft 251 kts 299°
2026-05-04 17:59 41.40038 -70.62267 16008 ft 251 kts 298°
2026-05-04 17:59 41.41658 -70.66269 16112 ft 231 kts 295°
2026-05-04 18:00 41.42301 -70.67853 15983 ft 219 kts 295°